When you browse on this site, cookies collect data to enhance your experience and personalize the content and advertising you see.
Visit our Privacy Policy to learn more. By continuing to use the site, you agree to this use of cookies and data.
  • In Italy
  • List of Countries
  • For 7 days
  • Water Temperature
  • Satellite Maps
  • Weather Map
  • Weather Widgets
  • user-avatar
    Login

    Hourly Weather Megri

    Today, 22 March, Friday

    Time Temperature Precipitation Wind Pressure Humidity
    00:00 +1°C° 0 mm 1 mps 621 mmHg 75%
    01:00 +1°C° 0 mm 1 mps 621 mmHg 75%
    02:00 +1°C° 0 mm 1 mps 621 mmHg 75%
    03:00 +1°C° 0 mm 1 mps 621 mmHg 74%
    04:00 0°C° 0 mm 1 mps 621 mmHg 75%
    05:00 0°C° 0 mm 1 mps 620 mmHg 75%
    06:00 0°C° 0 mm 1 mps 620 mmHg 75%
    07:00 +1°C° 0 mm 1 mps 621 mmHg 70%
    08:00 +2°C° 0 mm 0 mps 621 mmHg 66%
    09:00 +3°C° 0 mm 0 mps 622 mmHg 62%
    10:00 +4°C° 0 mm 0 mps 622 mmHg 63%
    11:00 +5°C° 0 mm 0 mps 622 mmHg 63%
    12:00 +6°C° 0 mm 1 mps 622 mmHg 64%
    13:00 +7°C° 0 mm 1 mps 621 mmHg 64%
    14:00 +7°C° 0 mm 1 mps 621 mmHg 64%
    15:00 +7°C° 0 mm 1 mps 621 mmHg 63%
    16:00 +7°C° 0 mm 1 mps 621 mmHg 62%
    17:00 +6°C° 0 mm 1 mps 620 mmHg 60%
    18:00 +6°C° 0 mm 1 mps 620 mmHg 58%
    19:00 +5°C° 0 mm 1 mps 620 mmHg 60%
    20:00 +4°C° 0 mm 1 mps 620 mmHg 62%
    21:00 +3°C° 0 mm 1 mps 620 mmHg 64%
    22:00 +3°C° 0 mm 1 mps 620 mmHg 66%
    23:00 +3°C° 0 mm 1 mps 620 mmHg 68%

    Tomorrow, 23 March, Saturday

    Time Temperature Precipitation Wind Pressure Humidity
    00:00 +2°C° 0 mm 1 mps 620 mmHg 70%
    01:00 +2°C° 0 mm 1 mps 620 mmHg 72%
    02:00 +1°C° 0 mm 1 mps 620 mmHg 74%
    03:00 +1°C° 0 mm 1 mps 620 mmHg 75%
    04:00 0°C° 0 mm 0 mps 620 mmHg 76%
    05:00 0°C° 0 mm 0 mps 620 mmHg 77%
    06:00 0°C° 0 mm 0 mps 620 mmHg 78%
    07:00 +2°C° 0 mm 1 mps 620 mmHg 74%
    08:00 +3°C° 0 mm 1 mps 620 mmHg 70%
    09:00 +5°C° 0 mm 1 mps 620 mmHg 66%
    10:00 +4°C° 0 mm 2 mps 620 mmHg 65%
    11:00 +5°C° 0 mm 2 mps 620 mmHg 64%
    12:00 +5°C° 0 mm 3 mps 619 mmHg 63%
    13:00 +5°C° 0 mm 3 mps 619 mmHg 59%
    14:00 +7°C° 0 mm 3 mps 618 mmHg 56%
    15:00 +6°C° 0 mm 4 mps 618 mmHg 52%
    16:00 +5°C° 0 mm 3 mps 618 mmHg 52%
    17:00 +6°C° 0 mm 2 mps 617 mmHg 52%
    18:00 +5°C° 0 mm 2 mps 617 mmHg 52%
    19:00 +5°C° 0 mm 1 mps 617 mmHg 53%
    20:00 +5°C° 0 mm 1 mps 617 mmHg 55%
    21:00 +5°C° 0 mm 1 mps 617 mmHg 56%
    22:00 +4°C° 0 mm 1 mps 617 mmHg 56%
    23:00 +4°C° 0 mm 1 mps 617 mmHg 56%

    Day after tomorrow, 24 March, Sunday

    Time Temperature Precipitation Wind Pressure Humidity
    00:00 +4°C° 0 mm 1 mps 617 mmHg 56%
    01:00 +4°C° 0.1 mm 1 mps 616 mmHg 58%
    02:00 +4°C° 0.1 mm 1 mps 616 mmHg 61%
    03:00 +4°C° 0.1 mm 1 mps 616 mmHg 63%
    04:00 +3°C° 0.1 mm 1 mps 616 mmHg 66%
    05:00 +2°C° 0.1 mm 2 mps 615 mmHg 69%
    06:00 +2°C° 0.1 mm 2 mps 615 mmHg 73%
    07:00 +3°C° 0 mm 2 mps 615 mmHg 71%
    08:00 +4°C° 0 mm 2 mps 616 mmHg 69%
    09:00 +4°C° 0 mm 3 mps 616 mmHg 67%
    10:00 +5°C° 0 mm 3 mps 616 mmHg 65%
    11:00 +7°C° 0 mm 3 mps 615 mmHg 63%
    12:00 +8°C° 0 mm 3 mps 615 mmHg 61%
    13:00 +8°C° 0.2 mm 3 mps 615 mmHg 60%
    14:00 +8°C° 0.2 mm 3 mps 614 mmHg 60%
    15:00 +8°C° 0.2 mm 3 mps 614 mmHg 60%
    16:00 +7°C° 1.9 mm 3 mps 614 mmHg 66%
    17:00 +5°C° 1.9 mm 3 mps 614 mmHg 71%
    18:00 +5°C° 1.9 mm 2 mps 613 mmHg 77%
    19:00 +3°C° 0.3 mm 3 mps 613 mmHg 78%
    20:00 +3°C° 0.3 mm 3 mps 614 mmHg 79%
    21:00 +2°C° 0.3 mm 3 mps 614 mmHg 80%
    22:00 +2°C° 1.7 mm 3 mps 614 mmHg 82%
    23:00 +2°C° 1.7 mm 3 mps 614 mmHg 84%

    25 March, Monday

    Time Temperature Precipitation Wind Pressure Humidity
    00:00 +2°C° 1.7 mm 3 mps 614 mmHg 86%
    01:00 +1°C° 0.4 mm 3 mps 614 mmHg 87%
    02:00 +1°C° 0.4 mm 3 mps 614 mmHg 87%
    03:00 +1°C° 0.4 mm 3 mps 614 mmHg 88%
    04:00 +1°C° 0.1 mm 3 mps 614 mmHg 88%
    05:00 +1°C° 0.1 mm 3 mps 614 mmHg 88%
    06:00 +2°C° 0.1 mm 2 mps 615 mmHg 88%
    07:00 +1°C° 0.3 mm 3 mps 615 mmHg 87%
    08:00 +2°C° 0.3 mm 3 mps 615 mmHg 86%
    09:00 +2°C° 0.3 mm 3 mps 615 mmHg 85%
    10:00 +3°C° 0.4 mm 3 mps 615 mmHg 84%
    11:00 +3°C° 0.4 mm 3 mps 615 mmHg 83%
    12:00 +4°C° 0.4 mm 4 mps 615 mmHg 82%
    13:00 +4°C° 0.2 mm 4 mps 614 mmHg 81%
    14:00 +4°C° 0.2 mm 4 mps 614 mmHg 81%
    15:00 +4°C° 0.2 mm 4 mps 613 mmHg 81%
    16:00 +3°C° 0.6 mm 4 mps 613 mmHg 82%
    17:00 +1°C° 0.6 mm 4 mps 613 mmHg 83%
    18:00 0°C° 0.6 mm 4 mps 613 mmHg 85%
    19:00 0°C° 1.6 mm 4 mps 613 mmHg 86%
    20:00 0°C° 1.6 mm 4 mps 613 mmHg 87%
    21:00 -1°C° 1.6 mm 4 mps 613 mmHg 88%
    22:00 -1°C° 1.1 mm 4 mps 613 mmHg 88%
    23:00 -2°C° 1.1 mm 4 mps 613 mmHg 88%

    26 March, Tuesday

    Time Temperature Precipitation Wind Pressure Humidity
    00:00 -2°C° 1.1 mm 4 mps 613 mmHg 89%
    01:00 -1°C° 0 mm 3 mps 612 mmHg 89%
    02:00 -2°C° 0 mm 3 mps 612 mmHg 89%
    03:00 -2°C° 0 mm 3 mps 611 mmHg 89%
    04:00 -2°C° 0.1 mm 3 mps 612 mmHg 89%
    05:00 -2°C° 0.1 mm 3 mps 612 mmHg 89%
    06:00 -2°C° 0.1 mm 3 mps 612 mmHg 89%
    07:00 -1°C° 0.2 mm 3 mps 612 mmHg 88%
    08:00 0°C° 0.2 mm 3 mps 613 mmHg 87%
    09:00 0°C° 0.2 mm 3 mps 613 mmHg 86%
    10:00 +1°C° 0.2 mm 3 mps 613 mmHg 85%
    11:00 +1°C° 0.2 mm 3 mps 612 mmHg 84%
    12:00 +2°C° 0.2 mm 3 mps 612 mmHg 82%
    13:00 +2°C° 0.3 mm 3 mps 612 mmHg 82%
    14:00 +1°C° 0.3 mm 4 mps 612 mmHg 82%
    15:00 +1°C° 0.3 mm 4 mps 612 mmHg 82%
    16:00 +1°C° 0.2 mm 3 mps 612 mmHg 83%
    17:00 +1°C° 0.2 mm 3 mps 612 mmHg 83%
    18:00 0°C° 0.2 mm 3 mps 613 mmHg 84%
    19:00 +1°C° 0.1 mm 2 mps 613 mmHg 84%
    20:00 -1°C° 0.1 mm 2 mps 614 mmHg 85%
    21:00 -1°C° 0.1 mm 2 mps 614 mmHg 85%
    22:00 -1°C° 0.1 mm 2 mps 615 mmHg 84%
    23:00 +1°C° 0.1 mm 1 mps 615 mmHg 83%

    27 March, Wednesday

    Time Temperature Precipitation Wind Pressure Humidity
    00:00 +1°C° 0.1 mm 1 mps 615 mmHg 82%
    01:00 +1°C° 0.1 mm 1 mps 616 mmHg 82%
    02:00 +1°C° 0.1 mm 1 mps 616 mmHg 81%
    03:00 +1°C° 0.1 mm 1 mps 616 mmHg 81%
    04:00 +1°C° 0 mm 1 mps 617 mmHg 81%
    05:00 +1°C° 0 mm 1 mps 617 mmHg 82%
    06:00 +1°C° 0 mm 1 mps 618 mmHg 83%
    07:00 +2°C° 0 mm 1 mps 618 mmHg 82%
    08:00 +4°C° 0 mm 1 mps 619 mmHg 82%
    09:00 +5°C° 0 mm 1 mps 619 mmHg 81%
    10:00 +5°C° 0 mm 1 mps 620 mmHg 79%
    11:00 +6°C° 0 mm 1 mps 620 mmHg 77%
    12:00 +7°C° 0 mm 1 mps 620 mmHg 75%
    13:00 +7°C° 0.1 mm 1 mps 619 mmHg 74%
    14:00 +7°C° 0.1 mm 1 mps 619 mmHg 74%
    15:00 +7°C° 0.1 mm 1 mps 619 mmHg 73%
    16:00 +7°C° 0 mm 1 mps 619 mmHg 71%
    17:00 +6°C° 0 mm 1 mps 619 mmHg 69%
    18:00 +6°C° 0 mm 1 mps 619 mmHg 67%
    19:00 +5°C° 0 mm 1 mps 619 mmHg 70%
    20:00 +4°C° 0 mm 1 mps 619 mmHg 72%
    21:00 +4°C° 0 mm 1 mps 620 mmHg 74%
    22:00 +4°C° 0.1 mm 1 mps 619 mmHg 76%
    23:00 +4°C° 0.1 mm 1 mps 619 mmHg 77%
    Show more